Regional Weather Roundup
Issued by NWS

Home | Current Version | Previous Version | Text Only | Print | Product List | Glossary On
Versions: 1 2 3 4 5 6 7 8 9 10 11 12 13 14 15 16 17 18 19 20 21 22 23 24 25 26 27
000
ASUS44 KBMX 061210
RWRAL

ALABAMA REGIONAL WEATHER ROUNDUP
NATIONAL WEATHER SERVICE BIRMINGHAM AL
600 AM CST TUE DEC 06 2016

NOTE: "FAIR" INDICATES FEW OR NO CLOUDS BELOW 12,000 FEET
WITH NO SIGNIFICANT WEATHER AND/OR OBSTRUCTIONS TO VISIBILITY.

THE REMARK "TC" DENOTES TEMPERATURE IN DEGREES CELSIUS.

ALZ001>011-014-016>018-020-061300-
NORTH ALABAMA

CITY           SKY/WX    TMP DP  RH WIND       PRES   REMARKS
MUSCLE SHOALS  CLOUDY    56  53  90 SE9       29.60S
6HR MIN TEMP:  53; 6HR MAX TEMP:  56; 6HR PCP:  0.60;

HUNTSVILLE     LGT RAIN  56  54  93 E10       29.61F
6HR MIN TEMP:  55; 6HR MAX TEMP:  57; 6HR PCP:  1.06;

DECATUR        CLOUDY    54  54 100 E9        29.61F
6HR MIN TEMP:  53; 6HR MAX TEMP:  55; 6HR PCP:  0.89;

HALEYVILLE     LGT RAIN  55  54  96 S3        29.63R FOG
6HR MIN TEMP:  54; 6HR MAX TEMP:  55; 6HR PCP:  1.00;

GADSDEN        LGT RAIN  55  54  96 E3        29.66R
6HR MIN TEMP:  54; 6HR MAX TEMP:  56; 6HR PCP:  0.17;

$$

ALZ012-013-022-023-030>036-040>044-061300-
WEST CENTRAL ALABAMA

CITY           SKY/WX    TMP DP  RH WIND       PRES   REMARKS
TUSCALOOSA     CLOUDY    58  58 100 S9        29.65R
6HR MIN TEMP:  56; 6HR MAX TEMP:  59; 6HR PCP:  0.17;

$$

ALZ015-024>027-033>036-040>044-061300-
CENTRAL ALABAMA

CITY           SKY/WX    TMP DP  RH WIND       PRES   REMARKS
BIRMINGHAM     CLOUDY    60  60 100 S6        29.64S
6HR MIN TEMP:  56; 6HR MAX TEMP:  60; 6HR PCP:  0.09;

MONTGOMERY     CLOUDY    58  54  86 CALM      29.67S FOG
6HR MIN TEMP:  57; 6HR MAX TEMP:  58; 6HR PCP:  0.15;

SHELBY CO ARPT CLOUDY    60  60 100 S6        29.65R FOG
6HR MIN TEMP:  58; 6HR MAX TEMP:  60; 6HR PCP:  0.06;

MAXWELL AFB    CLOUDY    57  57 100 CALM      29.65S
6HR MIN TEMP:  56; 6HR MAX TEMP:  57; 6HR PCP:  0.07;

GREENVILLE     FOG       64  61  90 SW12      29.68R VSB 1/2
6HR MIN TEMP:  58; 6HR MAX TEMP:  64; 6HR PCP:  0.04;

$$

ALZ019-021-028-029-037-038-045>048-061300-
EAST CENTRAL ALABAMA

CITY           SKY/WX    TMP DP  RH WIND       PRES   REMARKS
ANNISTON       LGT RAIN  56  54  93 E8        29.66S
6HR MIN TEMP:  56; 6HR MAX TEMP:  58; 6HR PCP:  0.37;

ALEXANDER CITY LGT RAIN  60  59  96 CALM      29.67F
6HR MIN TEMP:  60; 6HR MAX TEMP:  60; 6HR PCP:  0.15;

AUBURN         FOG       57  57 100 SE8       29.69S VSB 3/4
6HR MIN TEMP:  54; 6HR MAX TEMP:  57; 6HR PCP:  0.08;

$$

ALZ051>064-061300-
SOUTHWEST ALABAMA

CITY           SKY/WX    TMP DP  RH WIND       PRES   REMARKS
MOBILE         MOCLDY    61  57  87 SW14G21   29.76R FOG
6HR MIN TEMP:  61; 6HR MAX TEMP:  67; 6HR PCP: TRACE;

BROOKLEY FIELD PTCLDY    63  60  90 SW9       29.77R
6HR MIN TEMP:  62; 6HR MAX TEMP:  69; 6HR PCP:  0.08;

EVERGREEN      CLOUDY    65  64  97 W9        29.71R
6HR MIN TEMP:  58; 6HR MAX TEMP:  66; 6HR PCP:  0.12;

$$

ALZ049-050-065>069-061300-
SOUTHEAST ALABAMA

CITY           SKY/WX    TMP DP  RH WIND       PRES   REMARKS
DOTHAN         CLOUDY    71  71 100 SW15G22   29.73R
6HR MIN TEMP:  62; 6HR MAX TEMP:  71; 6HR PCP:  0.92;

OZARK          MOCLDY    70  70 100 SW13      29.70R
6HR MIN TEMP:  61; 6HR MAX TEMP:  70; 6HR PCP:  0.64;

TROY           CLOUDY    63  63 100 S8        29.68S FOG
6HR MIN TEMP:  56; 6HR MAX TEMP:  62; 6HR PCP:  0.20;

EUFAULA        CLOUDY    60  58  92 CALM      29.67S
6HR MIN TEMP:  57; 6HR MAX TEMP:  60; 6HR PCP:  0.23;

$$




USA.gov is the U.S. government's official web portal to all federal, state and local government web resources and services.